Tracking 22779 objects as of 12-Apr-2021
HD Live streaming from Space Station
objects crossing your sky now

STARLINK-1862

Track STARLINK-1862 now!
10-day predictions
STARLINK-1862 is classified as:


NORAD ID: 47149
Int'l Code: 2020-088AD
Perigee: 553.1 km
Apogee: 555.6 km
Inclination: 53.1 °
Period: 95.6 minutes
Semi major axis: 6925 km
RCS: Unknown
Launch date: November 25, 2020
Source: United States (US)
Launch site: AIR FORCE EASTERN TEST RANGE (AFETR)
aabbcc
Your satellite tracking list
Your tracking list is empty




NASA's NSSDC Master Catalog

Two Line Element Set (TLE):
1 47149U 20088AD  21101.91668981  .00010323  00000-0  71081-3 0  9995
2 47149  53.0554  69.6765 0001853  67.6725 185.2967 15.06404639  1803
Source of the keplerian elements: AFSPC